Chicago Lansing, IL

11:03 PM CDT on April 23, 2018 (GMT -0500)
Lansing Municipal

Weather History for KIGQ - September, 2012

Change the Weather History Date:

Tuesday, September 4, 2012

  Actual Average (KGYY) Record (KGYY)
Temperature  
Mean Temperature 78 °F -  
Max Temperature 86 °F 78 °F 98 °F (1953)
Min Temperature 70 °F 60 °F 32 °F (1997)
Cooling Degree Days 13    
Growing Degree Days 28 (Base 50)    
Moisture  
Dew Point 69 °F    
Average Humidity 78    
Maximum Humidity 94    
Minimum Humidity 57    
Precipitation  
Precipitation 0.00 in - - ()
Sea Level Pressure  
Sea Level Pressure 29.88 in    
Wind  
Wind Speed 3 mph (ENE)    
Max Wind Speed 22 mph    
Max Gust Speed 36 mph    
Visibility 9 miles    
Events Rain , Thunderstorm    
Averages and records for this station are not official NWS values.
T = Trace of Precipitation, MM = Missing Value Source: NWS Daily Summary

Daily Weather History Graph

Daily Weather History Graph

Search for Another Location

Airport or City:

Astronomy

Sep. 04, 2012 Rise Set
Actual Time 6:19 AM CDT 7:17 PM CDT
Civil Twilight 5:51 AM CDT 7:45 PM CDT
Nautical Twilight 5:17 AM CDT 8:19 PM CDT
Astronomical Twilight 4:42 AM CDT 8:54 PM CDT
Moon 9:05 PM CDT (9/4) 10:30 AM CDT (9/4)
Length of Visible Light 13h 54m
Length of Day
12h 57m
Waning Gibbous, 83% of the Moon is Illuminated
Sep 4
Waning Gibbous
Sep 8
Last Quarter
Sep 15
New
Sep 22
First Quarter
Sep 29
Full

Hourly Weather History & Observations

Time (CDT) Temp. Heat Index Dew Point Humidity Pressure Visibility Wind Dir Wind Speed Gust Speed Precip Events Conditions
12:15 AM 72.5 °F - 69.1 °F 89% 29.88 in 10.0 mi Calm Calm - N/A   Clear
12:35 AM 72.0 °F - 68.9 °F 90% 29.88 in 10.0 mi Calm Calm - N/A   Clear
12:55 AM 71.8 °F - 68.5 °F 89% 29.88 in 10.0 mi Calm Calm - N/A   Clear
1:15 AM 71.1 °F - 68.4 °F 91% 29.89 in 10.0 mi Calm Calm - N/A   Clear
1:35 AM 71.1 °F - 68.5 °F 92% 29.89 in 10.0 mi West 3.5 mph - N/A   Clear
1:55 AM 71.1 °F - 68.9 °F 93% 29.89 in 7.0 mi West 3.5 mph - N/A   Clear
2:15 AM 70.3 °F - 68.4 °F 93% 29.88 in 7.0 mi West 3.5 mph - N/A   Clear
2:35 AM 70.9 °F - 68.9 °F 93% 29.88 in 5.0 mi Calm Calm - N/A   Clear
2:55 AM 70.2 °F - 68.0 °F 93% 29.88 in 4.0 mi Calm Calm - N/A   Clear
3:15 AM 71.1 °F - 68.9 °F 93% 29.89 in 5.0 mi Calm Calm - N/A   Clear
3:35 AM 70.3 °F - 68.2 °F 93% 29.88 in 5.0 mi Calm Calm - N/A   Mostly Cloudy
3:55 AM 71.1 °F - 68.9 °F 93% 29.88 in 5.0 mi Calm Calm - N/A   Overcast
4:15 AM 72.1 °F - 69.3 °F 91% 29.89 in 7.0 mi NNW 3.5 mph - N/A   Overcast
4:35 AM 72.7 °F - 69.3 °F 89% 29.88 in 7.0 mi Calm Calm - N/A   Mostly Cloudy
4:55 AM 73.0 °F - 69.3 °F 88% 29.89 in 10.0 mi North 4.6 mph - N/A   Mostly Cloudy
5:15 AM 73.8 °F - 70.2 °F 88% 29.90 in 10.0 mi NNE 9.2 mph - N/A   Overcast
5:35 AM 73.2 °F - 70.5 °F 91% 29.91 in 10.0 mi NE 8.1 mph - N/A Thunderstorm Overcast
5:55 AM 72.9 °F - 70.3 °F 92% 29.91 in 10.0 mi NE 6.9 mph - N/A Rain Light Rain
6:15 AM 72.0 °F - 69.8 °F 93% 29.91 in 10.0 mi NE 3.5 mph - N/A   Overcast
6:35 AM 71.8 °F - 69.8 °F 93% 29.91 in 10.0 mi East 5.8 mph - N/A   Scattered Clouds
6:55 AM 71.6 °F - 69.8 °F 94% 29.91 in 7.0 mi East 4.6 mph - N/A   Mostly Cloudy
7:15 AM 72.0 °F - 70.0 °F 93% 29.91 in 5.0 mi East 5.8 mph - N/A   Overcast
7:35 AM 72.1 °F - 69.8 °F 92% 29.91 in 4.0 mi East 4.6 mph - N/A   Overcast
7:55 AM 72.0 °F - 69.8 °F 93% 29.91 in 7.0 mi ESE 3.5 mph - N/A   Scattered Clouds
8:15 AM 73.6 °F - 70.0 °F 88% 29.91 in 10.0 mi Calm Calm - N/A   Clear
8:35 AM 73.9 °F - 70.3 °F 88% 29.90 in 10.0 mi SSW 3.5 mph - N/A   Clear
8:55 AM 74.3 °F - 70.3 °F 87% 29.89 in 10.0 mi Calm Calm - N/A   Clear
9:15 AM 75.4 °F - 71.2 °F 87% 29.89 in 10.0 mi SW 3.5 mph - N/A   Clear
9:35 AM 76.6 °F - 71.1 °F 83% 29.89 in 10.0 mi SW 3.5 mph - N/A   Clear
9:55 AM 78.8 °F - 71.6 °F 78% 29.90 in 10.0 mi SW 3.5 mph - N/A   Clear
10:15 AM 79.0 °F - 71.8 °F 78% 29.90 in 10.0 mi SW 5.8 mph - N/A   Clear
10:35 AM 80.8 °F 85.1 °F 72.1 °F 75% 29.90 in 10.0 mi WSW 4.6 mph - N/A   Clear
10:55 AM 82.0 °F 87.0 °F 72.1 °F 72% 29.90 in 10.0 mi WSW 4.6 mph - N/A   Clear
11:15 AM 83.3 °F 88.4 °F 71.6 °F 68% 29.90 in 10.0 mi West 6.9 mph - N/A   Clear
11:35 AM 83.5 °F 88.5 °F 71.4 °F 67% 29.89 in 10.0 mi West 6.9 mph - N/A   Clear
11:55 AM 84.2 °F 89.9 °F 72.0 °F 67% 29.89 in 10.0 mi West 4.6 mph - N/A   Clear
12:15 PM 84.2 °F 89.6 °F 71.6 °F 66% 29.88 in 10.0 mi NW 3.5 mph - N/A   Clear
12:35 PM 84.7 °F 89.7 °F 70.7 °F 63% 29.88 in 10.0 mi West 5.8 mph - N/A   Clear
12:55 PM 85.6 °F 91.1 °F 71.2 °F 62% 29.88 in 10.0 mi West 4.6 mph - N/A   Scattered Clouds
1:15 PM 86.0 °F 90.1 °F 69.3 °F 57% 29.88 in 10.0 mi NNE 3.5 mph - N/A   Scattered Clouds
1:35 PM 83.3 °F 89.0 °F 72.7 °F 70% 29.88 in 10.0 mi ENE 3.5 mph - N/A   Mostly Cloudy
1:55 PM 84.2 °F 90.6 °F 72.9 °F 69% 29.87 in 7.0 mi ENE 4.6 mph - N/A   Scattered Clouds
2:15 PM 84.7 °F 90.7 °F 72.1 °F 66% 29.87 in 10.0 mi NE 4.6 mph - N/A   Clear
2:35 PM 85.1 °F 91.1 °F 72.1 °F 65% 29.86 in 10.0 mi ENE 5.8 mph - N/A   Clear
2:55 PM 86.0 °F 91.8 °F 71.6 °F 62% 29.86 in 10.0 mi NE 5.8 mph - N/A   Clear
3:15 PM 85.8 °F 90.8 °F 70.5 °F 60% 29.85 in 10.0 mi Calm Calm - N/A   Clear
3:35 PM 86.0 °F 91.1 °F 70.5 °F 60% 29.85 in 10.0 mi Calm Calm - N/A   Clear
3:55 PM 86.0 °F 90.7 °F 70.0 °F 59% 29.85 in 10.0 mi Calm Calm - N/A   Clear
4:15 PM 86.4 °F 91.1 °F 70.2 °F 58% 29.85 in 10.0 mi NE 5.8 mph - N/A   Clear
4:35 PM 85.1 °F 89.8 °F 70.5 °F 61% 29.85 in 10.0 mi NE 5.8 mph - N/A   Clear
4:55 PM 84.7 °F 89.4 °F 70.5 °F 62% 29.85 in 10.0 mi NE 8.1 mph - N/A   Clear
5:15 PM 84.2 °F 88.1 °F 69.4 °F 61% 29.85 in 10.0 mi NE 6.9 mph - N/A   Clear
5:35 PM 84.0 °F 87.6 °F 68.7 °F 60% 29.85 in 10.0 mi NE 8.1 mph - N/A   Clear
5:55 PM 83.3 °F 86.6 °F 68.5 °F 61% 29.84 in 10.0 mi ENE 8.1 mph - N/A   Clear
6:15 PM 82.9 °F 85.8 °F 68.0 °F 60% 29.84 in 10.0 mi NE 6.9 mph - N/A   Clear
6:35 PM 81.7 °F 84.5 °F 67.8 °F 63% 29.84 in 10.0 mi ENE 4.6 mph - N/A   Clear
6:55 PM 81.3 °F 84.0 °F 67.8 °F 63% 29.84 in 10.0 mi East 5.8 mph - N/A   Clear
7:15 PM 78.8 °F - 68.0 °F 69% 29.83 in 10.0 mi East 5.8 mph - N/A   Clear
7:35 PM 77.4 °F - 68.4 °F 74% 29.83 in 10.0 mi ESE 5.8 mph - N/A   Clear
7:55 PM 77.4 °F - 67.6 °F 72% 29.85 in 10.0 mi East 4.6 mph - N/A   Clear
8:15 PM 76.5 °F - 67.3 °F 73% 29.85 in 10.0 mi East 3.5 mph - N/A   Clear
8:35 PM 76.1 °F - 67.1 °F 74% 29.86 in 10.0 mi ESE 4.6 mph - N/A   Clear
8:55 PM 75.4 °F - 67.1 °F 75% 29.85 in 10.0 mi SE 4.6 mph - N/A   Clear
9:15 PM 74.7 °F - 67.3 °F 78% 29.84 in 10.0 mi SE 3.5 mph - N/A   Clear
9:35 PM 74.3 °F - 67.3 °F 79% 29.85 in 10.0 mi ESE 3.5 mph - N/A   Clear
9:55 PM 73.6 °F - 67.5 °F 81% 29.85 in 10.0 mi SE 3.5 mph - N/A   Clear
10:15 PM 73.4 °F - 67.5 °F 82% 29.85 in 10.0 mi Calm Calm - N/A   Clear
10:35 PM 73.4 °F - 67.5 °F 82% 29.85 in 10.0 mi Calm Calm - N/A   Clear
10:55 PM 71.4 °F - 67.5 °F 87% 29.86 in 10.0 mi Calm Calm - N/A   Clear
11:15 PM 71.8 °F - 67.8 °F 87% 29.86 in 10.0 mi Calm Calm - N/A   Clear
11:35 PM 73.4 °F - 68.0 °F 83% 29.87 in 10.0 mi Calm Calm - N/A Thunderstorm Clear
11:55 PM 73.8 °F - 61.5 °F 65% 29.91 in 10.0 mi NNW 21.9 mph 35.7 mph N/A   Mostly Cloudy